TimeEST,TemperatureF,Dew PointF,Humidity,Sea Level PressureIn,VisibilityMPH,Wind Direction,Wind SpeedMPH,Gust SpeedMPH,PrecipitationIn,Events,Conditions,WindDirDegrees,DateUTC
12:00 AM,32.0,28.4,87,30.22,3.0,WNW,8.1,-,0.00,Snow,Light Snow,300,2012-11-29 05:00:00
12:04 AM,32.0,28.4,87,30.22,4.0,WNW,6.9,-,0.00,Snow,Light Snow,290,2012-11-29 05:04:00
12:23 AM,32.0,28.4,87,30.22,1.8,WNW,6.9,-,0.00,Snow,Light Snow,300,2012-11-29 05:23:00
12:41 AM,32.0,28.4,87,30.22,2.0,WNW,8.1,-,0.00,Snow,Light Snow,290,2012-11-29 05:41:00
12:54 AM,32.0,30.0,92,30.23,7.0,West,6.9,-,0.00,Snow,Light Snow,280,2012-11-29 05:54:00
1:54 AM,32.0,28.0,85,30.23,8.0,WSW,9.2,-,0.00,Snow,Light Snow,250,2012-11-29 06:54:00
2:54 AM,34.0,24.1,67,30.23,10.0,WSW,6.9,-,0.00,,Overcast,240,2012-11-29 07:54:00
3:54 AM,33.1,23.0,66,30.22,10.0,WSW,8.1,-,N/A,,Overcast,240,2012-11-29 08:54:00
4:54 AM,34.0,21.9,61,30.22,10.0,WSW,12.7,-,N/A,,Overcast,240,2012-11-29 09:54:00
5:54 AM,33.1,21.0,61,30.23,10.0,WSW,17.3,23.0,N/A,,Scattered Clouds,240,2012-11-29 10:54:00
6:54 AM,33.1,21.0,61,30.24,10.0,WSW,11.5,-,N/A,,Scattered Clouds,240,2012-11-29 11:54:00
7:54 AM,33.1,21.9,64,30.24,10.0,WSW,10.4,-,N/A,,Scattered Clouds,240,2012-11-29 12:54:00
8:54 AM,36.0,25.0,64,30.24,10.0,WSW,19.6,23.0,N/A,,Scattered Clouds,240,2012-11-29 13:54:00
9:54 AM,39.0,25.0,57,30.24,10.0,WSW,23.0,27.6,N/A,,Scattered Clouds,240,2012-11-29 14:54:00
10:54 AM,41.0,25.0,53,30.23,10.0,WSW,18.4,25.3,N/A,,Scattered Clouds,250,2012-11-29 15:54:00
11:54 AM,45.0,28.0,52,30.20,10.0,West,17.3,28.8,N/A,,Mostly Cloudy,260,2012-11-29 16:54:00
12:54 PM,45.0,27.0,49,30.19,10.0,West,19.6,-,N/A,,Scattered Clouds,260,2012-11-29 17:54:00
1:54 PM,46.9,28.0,48,30.17,10.0,West,17.3,28.8,N/A,,Mostly Cloudy,260,2012-11-29 18:54:00
2:54 PM,46.9,28.0,48,30.17,10.0,WSW,18.4,28.8,N/A,,Overcast,250,2012-11-29 19:54:00
3:54 PM,46.0,26.1,46,30.17,10.0,WSW,23.0,28.8,N/A,,Overcast,250,2012-11-29 20:54:00
4:54 PM,42.1,30.0,62,30.18,10.0,WNW,5.8,-,N/A,,Mostly Cloudy,300,2012-11-29 21:54:00
5:54 PM,41.0,30.0,65,30.19,10.0,West,5.8,-,N/A,,Mostly Cloudy,280,2012-11-29 22:54:00
6:54 PM,42.1,25.0,51,30.20,10.0,WSW,11.5,-,N/A,,Mostly Cloudy,250,2012-11-29 23:54:00
7:54 PM,42.1,24.1,49,30.21,10.0,WSW,12.7,-,N/A,,Overcast,240,2012-11-30 00:54:00
8:54 PM,42.1,23.0,47,30.21,10.0,WSW,13.8,-,N/A,,Overcast,250,2012-11-30 01:54:00
9:54 PM,42.1,26.1,53,30.22,10.0,West,16.1,-,N/A,,Overcast,260,2012-11-30 02:54:00
10:54 PM,37.0,30.0,76,30.25,10.0,NNW,8.1,-,N/A,,Overcast,330,2012-11-30 03:54:00
11:48 PM,35.6,28.4,75,30.27,10.0,NNW,9.2,-,N/A,,Overcast,330,2012-11-30 04:48:00
11:54 PM,35.1,28.9,78,30.28,10.0,NW,9.2,-,N/A,,Overcast,310,2012-11-30 04:54:00